Ely, MN

12:25 PM CDT on May 28, 2017 (GMT -0500)
Ely Municipal

Weather History for KELO - June, 2014

Change the Weather History Date:

Tuesday, June 3, 2014

  Actual Average Record
Temperature  
Mean Temperature 58 °F -  
Max Temperature 69 °F 65 °F 78 °F (2005)
Min Temperature 48 °F 42 °F 30 °F (2013)
Degree Days  
Heating Degree Days 6    
Growing Degree Days 8 (Base 50)    
Moisture  
Dew Point 48 °F    
Average Humidity 74    
Maximum Humidity 94    
Minimum Humidity 35    
Precipitation  
Precipitation 0.07 in - - ()
Sea Level Pressure  
Sea Level Pressure 29.80 in    
Wind  
Wind Speed 8 mph (WNW)    
Max Wind Speed 16 mph    
Max Gust Speed 25 mph    
Visibility 10 miles    
Events Rain    
Averages and records for this station are not official NWS values.
T = Trace of Precipitation, MM = Missing Value Source: NWS Daily Summary

Daily Weather History Graph

Daily Weather History Graph

Search for Another Location

Airport or City:

Trip Planner

Search our weather history database for the weather conditions in past years. The results will help you decide how hot, cold, wet, or windy it might be!

Date:

Astronomy

Jun. 03, 2014 Rise Set
Actual Time 5:11 AM CDT 8:59 PM CDT
Civil Twilight 4:31 AM CDT 9:39 PM CDT
Nautical Twilight 3:37 AM CDT 10:34 PM CDT
Astronomical Twilight 2:17 AM CDT 11:55 PM CDT
Moon 10:51 AM CDT (6/3) 12:13 AM CDT (6/3)
Length of Visible Light 17h 08m
Length of Day
15h 48m
Waxing Crescent, 30% of the Moon is Illuminated
Jun 3
Waxing Crescent
Jun 5
First Quarter
Jun 12
Full
Jun 19
Last Quarter
Jun 27
New

Hourly Weather History & Observations

Time (CDT) Temp. Dew Point Humidity Pressure Visibility Wind Dir Wind Speed Gust Speed Precip Events Conditions
12:13 AM 48.2 °F 46.4 °F 93% 29.66 in 7.0 mi NNW 9.2 mph - N/A Rain Light Rain
12:33 AM 48.2 °F 46.4 °F 93% 29.67 in 5.0 mi NW 8.1 mph 17.3 mph 0.02 in Rain Rain
12:53 AM 48.2 °F 46.4 °F 93% 29.67 in 7.0 mi NW 9.2 mph - 0.02 in   Drizzle
1:12 AM 48.2 °F 46.4 °F 93% 29.68 in 10.0 mi NW 13.8 mph 20.7 mph 0.01 in   Drizzle
1:33 AM 48.2 °F 46.4 °F 93% 29.68 in 7.0 mi NW 5.8 mph 18.4 mph 0.01 in Rain Light Rain
1:53 AM 48.2 °F 46.4 °F 93% 29.69 in 10.0 mi NW 8.1 mph - 0.01 in Rain Light Rain
2:12 AM 48.2 °F 46.4 °F 93% 29.70 in 10.0 mi NW 6.9 mph 16.1 mph 0.01 in Rain Light Rain
2:33 AM 48.2 °F 46.4 °F 93% 29.71 in 10.0 mi WNW 6.9 mph 17.3 mph 0.03 in Rain Light Rain
2:53 AM 48.2 °F 46.4 °F 93% 29.71 in 10.0 mi WNW 8.1 mph - 0.04 in Rain Light Rain
3:12 AM 48.2 °F 46.4 °F 93% 29.71 in 10.0 mi WNW 8.1 mph - N/A   Drizzle
3:33 AM 50.0 °F 48.2 °F 94% 29.72 in 10.0 mi WNW 9.2 mph 20.7 mph N/A   Light Drizzle
3:53 AM 50.0 °F 48.2 °F 94% 29.73 in 10.0 mi WNW 9.2 mph 18.4 mph N/A   Overcast
4:12 AM 50.0 °F 48.2 °F 94% 29.74 in 10.0 mi WNW 9.2 mph - N/A   Overcast
4:33 AM 50.0 °F 48.2 °F 94% 29.74 in 10.0 mi WNW 6.9 mph - N/A   Overcast
4:53 AM 50.0 °F 48.2 °F 94% 29.75 in 10.0 mi WNW 4.6 mph - N/A   Overcast
5:12 AM 50.0 °F 48.2 °F 94% 29.75 in 10.0 mi WNW 9.2 mph - N/A   Overcast
5:33 AM 50.0 °F 48.2 °F 94% 29.75 in 10.0 mi West 5.8 mph - N/A   Overcast
5:53 AM 51.8 °F 48.2 °F 88% 29.76 in 10.0 mi West 5.8 mph - N/A   Overcast
6:12 AM 51.8 °F 48.2 °F 88% 29.76 in 10.0 mi West 4.6 mph - N/A   Overcast
6:33 AM 51.8 °F 50.0 °F 94% 29.76 in 10.0 mi West 6.9 mph - N/A   Overcast
6:53 AM 51.8 °F 50.0 °F 94% 29.77 in 10.0 mi West 6.9 mph - N/A   Overcast
7:13 AM 53.6 °F 51.8 °F 94% 29.77 in 10.0 mi West 6.9 mph 16.1 mph N/A   Overcast
7:32 AM 53.6 °F 51.8 °F 94% 29.78 in 10.0 mi West 10.4 mph 17.3 mph N/A   Overcast
7:53 AM 53.6 °F 51.8 °F 94% 29.77 in 10.0 mi West 9.2 mph - N/A   Overcast
8:13 AM 53.6 °F 51.8 °F 94% 29.78 in 10.0 mi West 8.1 mph 18.4 mph N/A   Overcast
8:32 AM 53.6 °F 51.8 °F 94% 29.79 in 10.0 mi WNW 5.8 mph 18.4 mph N/A   Overcast
8:53 AM 53.6 °F 51.8 °F 94% 29.79 in 10.0 mi WNW 6.9 mph - N/A   Overcast
9:13 AM 55.4 °F 51.8 °F 88% 29.79 in 10.0 mi WNW 8.1 mph - N/A   Overcast
9:32 AM 57.2 °F 51.8 °F 82% 29.79 in 10.0 mi WNW 10.4 mph 17.3 mph N/A   Mostly Cloudy
9:53 AM 57.2 °F 51.8 °F 82% 29.80 in 10.0 mi WNW 11.5 mph 16.1 mph N/A   Mostly Cloudy
10:13 AM 59.0 °F 51.8 °F 77% 29.80 in 10.0 mi West 16.1 mph 21.9 mph N/A   Mostly Cloudy
10:32 AM 60.8 °F 50.0 °F 68% 29.81 in 10.0 mi NW 16.1 mph 21.9 mph N/A   Scattered Clouds
10:53 AM 60.8 °F 51.8 °F 72% 29.81 in 10.0 mi WNW 9.2 mph 20.7 mph N/A   Scattered Clouds
11:13 AM 60.8 °F 50.0 °F 68% 29.82 in 10.0 mi WNW 13.8 mph 21.9 mph N/A   Mostly Cloudy
11:32 AM 62.6 °F 50.0 °F 63% 29.83 in 10.0 mi WNW 13.8 mph 25.3 mph N/A   Overcast
11:53 AM 62.6 °F 51.8 °F 68% 29.83 in 10.0 mi West 10.4 mph 17.3 mph N/A   Overcast
12:12 PM 62.6 °F 50.0 °F 63% 29.83 in 10.0 mi WNW 10.4 mph 17.3 mph N/A   Overcast
12:33 PM 62.6 °F 50.0 °F 63% 29.83 in 10.0 mi West 12.7 mph 18.4 mph N/A   Overcast
12:53 PM 62.6 °F 51.8 °F 68% 29.84 in 10.0 mi WNW 9.2 mph - N/A   Overcast
1:13 PM 62.6 °F 50.0 °F 63% 29.84 in 10.0 mi WNW 9.2 mph - N/A   Mostly Cloudy
1:33 PM 62.6 °F 50.0 °F 63% 29.84 in 10.0 mi West 10.4 mph 17.3 mph N/A   Mostly Cloudy
1:53 PM 62.6 °F 50.0 °F 63% 29.84 in 10.0 mi WNW 10.4 mph 18.4 mph N/A   Overcast
2:13 PM 64.4 °F 48.2 °F 56% 29.84 in 10.0 mi WNW 11.5 mph 18.4 mph N/A   Mostly Cloudy
2:53 PM 64.4 °F 48.2 °F 56% 29.84 in 10.0 mi WNW 10.4 mph - N/A   Scattered Clouds
3:12 PM 66.2 °F 48.2 °F 52% 29.84 in 10.0 mi West 10.4 mph 16.1 mph N/A   Mostly Cloudy
3:33 PM 66.2 °F 48.2 °F 52% 29.85 in 10.0 mi West 8.1 mph - N/A   Overcast
3:53 PM 66.2 °F 50.0 °F 56% 29.86 in 10.0 mi West 5.8 mph - N/A   Mostly Cloudy
4:12 PM 66.2 °F 48.2 °F 52% 29.87 in 10.0 mi West 8.1 mph - N/A   Scattered Clouds
4:33 PM 68.0 °F 48.2 °F 49% 29.86 in 10.0 mi West 10.4 mph 16.1 mph N/A   Scattered Clouds
4:53 PM 69.8 °F 46.4 °F 43% 29.85 in 10.0 mi WNW 12.7 mph 19.6 mph N/A   Clear
5:12 PM 69.8 °F 48.2 °F 46% 29.85 in 10.0 mi WNW 8.1 mph - N/A   Clear
5:33 PM 69.8 °F 48.2 °F 46% 29.84 in 10.0 mi NW 4.6 mph - N/A   Clear
5:53 PM 69.8 °F 46.4 °F 43% 29.84 in 10.0 mi WNW 4.6 mph - N/A   Clear
6:12 PM 69.8 °F 44.6 °F 40% 29.84 in 10.0 mi West 5.8 mph - N/A   Clear
6:33 PM 69.8 °F 42.8 °F 38% 29.84 in 10.0 mi West 4.6 mph - N/A   Scattered Clouds
6:53 PM 69.8 °F 41.0 °F 35% 29.84 in 10.0 mi West 5.8 mph - N/A   Clear
7:12 PM 69.8 °F 42.8 °F 38% 29.84 in 10.0 mi NW 4.6 mph - N/A   Clear
7:33 PM 68.0 °F 41.0 °F 37% 29.84 in 10.0 mi WNW 3.5 mph - N/A   Clear
7:53 PM 66.2 °F 41.0 °F 40% 29.84 in 10.0 mi WNW 5.8 mph - N/A   Clear
8:12 PM 66.2 °F 42.8 °F 43% 29.84 in 10.0 mi Calm Calm - N/A   Clear
8:33 PM 64.4 °F 44.6 °F 49% 29.83 in 10.0 mi Calm Calm - N/A   Clear
8:53 PM 60.8 °F 46.4 °F 59% 29.84 in 10.0 mi Calm Calm - N/A   Clear
9:12 PM 57.2 °F 48.2 °F 72% 29.84 in 10.0 mi Calm Calm - N/A   Clear
9:33 PM 55.4 °F 46.4 °F 72% 29.86 in 10.0 mi Calm Calm - N/A   Clear
9:53 PM 53.6 °F 46.4 °F 77% 29.86 in 10.0 mi Calm Calm - N/A   Clear
10:12 PM 51.8 °F 48.2 °F 88% 29.86 in 10.0 mi Calm Calm - N/A   Mostly Cloudy
10:33 PM 53.6 °F 48.2 °F 82% 29.87 in 10.0 mi Calm Calm - N/A   Mostly Cloudy
10:53 PM 51.8 °F 46.4 °F 82% 29.87 in 10.0 mi Calm Calm - N/A   Scattered Clouds
11:12 PM 51.8 °F 48.2 °F 88% 29.87 in 10.0 mi Calm Calm - N/A   Mostly Cloudy
11:33 PM 51.8 °F 48.2 °F 88% 29.87 in 10.0 mi Calm Calm - N/A   Scattered Clouds
11:53 PM 50.0 °F 46.4 °F 87% 29.87 in 10.0 mi Calm Calm - N/A   Clear